Location: Bazinghen
(50.8246°N, 1.6616°E)
Time: 09:23:00
(UTC+00:00)

Cosmos 1980 Rocket - Pass Details

Date: 09 April 2020
Orbit: 829 x 850 km, 71.0° (Epoch: 24 May)

Event Time Altitude Azimuth Distance (km) Brightness Sun altitude
Rises 19:51:01 0° 331° (NNW) 3,387 6.4 -11.3°
Reaches altitude 10° 19:54:06 10° 348° (NNW) 2,453 5.2 -11.8°
Maximum altitude 19:58:16 21° 36° (NE) 1,815 3.9 -12.3°
Enters shadow 20:02:17 11° 83° (E) 2,415 4.1 -12.9°
